Wind_Speed
19 17 16 16 15 14 14 14 15 14 13 11 12 12 12 11 11 11 10 9 8 8 9 10 11 12 13 14 14 14 14 14 15 16 17 17 17 17 17 17 18 18 18 19 19 19 19 19 19 19 19 19 19 19 18 18 18 18 18 18 17 17 17 18 19 20 22 22 23
19 17 16 15 14 13 13 13 14 14 14 14 14 13 11 10 11 11 10 9 8 7 8 8 9 10 12 14 15 16 16 15 16 17 18 18 17 17 17 17 17 18 18 19 20 20 21 21 22 22 21 21 21 21 21 21 20 20 20 20 20 19 19 19 19 20 21 21 22
17 16 15 14 13 12 12 13 14 14 15 15 14 12 11 10 11 11 11 10 9 9 9 9 9 11 13 14 15 16 16 16 16 16 16 16 16 16 16 16 17 18 18 19 19 20 21 22 22 22 23 23 23 23 23 23 23 23 23 23 23 23 22 22 22 22 21 22 22
16 15 14 13 12 12 13 14 14 14 14 14 12 11 11 11 12 12 11 11 10 10 10 10 11 12 13 14 14 15 15 15 15 16 16 16 16 16 16 17 17 18 18 18 18 19 19 20 20 21 21 22 22 22 23 23 23 23 23 24 24 24 24 25 25 24 23 23 23
16 15 13 12 11 12 13 14 14 14 14 13 12 12 12 12 12 12 12 11 11 11 11 11 12 13 14 14 14 15 15 15 16 16 16 17 17 17 17 17 17 17 17 16 16 17 17 18 18 19 19 20 20 21 21 21 22 22 23 24 24 25 25 25 26 25 25 25 24
16 15 14 13 12 11 12 13 14 14 13 12 12 12 12 12 12 11 11 10 11 11 11 12 14 14 14 14 14 15 15 16 16 17 17 17 17 17 16 15 15 14 14 15 15 16 16 17 17 18 18 19 19 20 20 20 20 21 22 23 23 24 24 25 25 26 26 26 25
16 15 13 12 11 11 12 13 14 13 13 12 12 11 11 11 11 10 10 10 11 11 12 13 13 13 13 13 13 14 14 15 15 15 15 15 14 13 13 12 12 13 13 14 15 16 16 17 17 18 18 18 19 19 19 18 18 19 20 21 21 21 22 23 24 24 25 25 25
14 13 12 11 11 12 12 12 12 12 12 11 11 10 10 10 9 9 10 10 10 11 11 11 11 11 11 12 12 13 13 13 13 13 13 13 12 12 12 12 13 13 14 14 15 15 16 16 17 17 17 17 17 17 16 16 16 16 17 18 19 19 19 20 21 22 23 24 25
12 11 11 11 12 12 12 12 12 11 11 10 10 10 10 9 9 9 9 9 10 10 10 10 10 11 11 11 12 12 13 13 12 12 12 13 13 13 13 14 14 14 15 15 15 16 16 16 16 16 16 16 17 16 16 15 15 16 16 17 18 18 18 18 19 20 22 23 23
12 12 12 12 13 13 12 12 12 12 11 11 10 10 10 10 10 10 10 10 10 11 11 11 11 11 11 12 12 12 12 12 12 12 13 13 14 14 15 15 16 16 16 17 17 17 17 17 17 17 18 18 17 17 17 17 16 17 17 17 18 18 18 18 19 20 21 22 22
12 12 12 12 12 12 11 11 11 10 10 10 10 10 10 10 10 10 11 11 11 11 11 11 11 11 11 12 12 12 12 12 13 13 13 14 14 15 16 16 17 17 18 18 18 18 18 19 19 19 20 20 19 19 19 18 18 18 18 19 19 19 19 20 20 21 21 22 22
11 11 11 10 10 9 8 8 7 7 7 7 7 7 8 8 8 9 9 9 10 10 10 10 10 10 11 11 11 11 12 12 12 13 14 14 15 15 16 16 17 18 18 18 19 19 20 20 20 21 21 21 21 20 20 20 20 20 20 20 20 20 20 20 21 21 22 22 22
11 11 10 9 8 7 6 6 5 5 5 6 6 7 7 7 8 8 8 8 8 8 9 9 9 10 10 11 11 11 12 12 13 13 14 15 15 16 16 17 17 18 18 19 19 20 20 20 20 20 20 21 20 20 20 20 20 21 21 21 21 21 21 21 21 22 22 22 22
11 10 10 9 7 6 6 7 7 7 7 7 8 8 8 8 8 7 7 7 7 7 7 8 8 9 10 10 11 11 12 13 13 14 15 16 16 16 17 17 18 18 19 19 19 19 19 18 18 18 18 18 17 17 17 18 18 19 20 21 21 22 22 22 22 22 22 22 22
11 10 9 8 7 7 7 8 9 9 9 9 9 9 9 8 8 7 7 7 7 7 7 7 8 9 10 11 11 12 12 13 13 13 14 14 14 15 15 15 15 15 15 15 15 15 14 14 14 13 13 13 14 14 14 14 15 16 17 18 19 19 20 20 21 21 21 20 20
10 9 8 8 7 7 8 9 9 10 9 9 9 9 8 8 7 7 7 6 6 7 7 8 9 10 11 11 11 11 11 11 12 11 11 11 11 11 11 11 11 11 11 11 11 11 11 11 11 11 11 12 12 13 13 13 14 14 14 14 15 15 16 17 17 17 17 17 18
9 9 8 7 7 7 8 9 9 9 9 9 9 8 8 7 7 7 6 7 7 8 9 10 10 10 10 10 10 10 10 10 10 10 10 10 10 10 10 9 10 10 10 10 11 11 11 11 11 11 11 12 12 13 13 13 13 13 13 14 14 14 14 15 15 15 16 16 17
8 8 8 7 7 7 8 9 9 9 9 9 8 8 8 7 7 7 8 9 9 10 10 9 8 9 9 9 9 9 9 9 9 9 9 9 9 9 9 10 11 11 11 11 11 12 12 12 12 12 12 12 12 13 13 13 13 13 13 14 14 15 15 16 16 16 16 17 18
8 8 7 7 7 7 8 8 9 9 8 8 8 8 7 7 7 8 9 10 9 8 7 7 7 8 8 8 9 9 9 9 8 9 9 9 9 9 10 10 11 11 11 12 12 12 12 13 13 13 12 12 12 12 12 12 12 13 13 14 15 16 16 17 17 17 18 18 19
7 7 7 7 7 8 8 9 9 8 8 8 8 8 7 7 7 8 8 8 7 6 6 6 7 8 8 8 8 9 9 9 8 8 9 9 9 9 10 10 10 11 11 12 12 12 12 12 12 12 12 12 12 12 12 12 12 13 13 14 15 15 16 16 17 17 18 18 18
7 7 7 7 8 9 9 9 9 9 9 8 8 7 7 6 6 6 6 5 5 5 5 6 7 8 9 9 8 8 8 8 7 7 8 8 9 9 9 9 10 10 11 11 11 11 11 11 11 11 11 11 11 11 11 12 12 13 13 13 13 14 14 15 15 16 16 17 17
8 8 8 9 9 10 10 10 10 10 9 8 7 7 6 5 5 4 4 4 4 4 5 7 8 9 9 8 8 7 6 6 6 6 7 7 8 8 8 9 9 10 10 9 9 9 9 9 9 9 9 9 10 10 10 11 12 12 12 12 12 13 13 14 14 14 15 15 15
9 9 10 10 11 11 11 11 10 9 8 7 7 6 5 5 5 5 5 4 4 5 6 7 8 9 9 8 7 6 5 5 5 5 5 5 6 7 8 8 8 8 8 8 7 7 7 7 7 7 8 8 9 9 9 10 10 11 11 11 11 12 12 13 13 13 14 14 14
10 10 11 11 11 11 11 10 9 9 8 7 7 6 6 6 6 6 5 5 5 6 7 7 7 8 8 7 6 6 5 5 4 4 4 4 5 6 7 7 7 7 7 7 6 6 6 6 6 6 7 7 8 8 8 9 9 10 10 11 11 11 11 12 12 12 13 13 13
11 11 12 11 11 10 10 9 8 7 7 8 8 7 7 7 6 5 5 5 5 6 6 6 6 6 6 6 5 5 4 4 4 4 4 5 5 6 6 6 6 6 7 6 6 5 5 5 5 6 6 7 7 7 7 8 8 9 9 10 11 11 12 11 11 12 12 12 13
12 12 12 11 10 10 9 8 7 6 7 8 8 8 8 6 5 4 4 4 4 5 5 5 5 5 4 4 3 4 4 4 4 4 5 5 5 5 5 5 5 6 6 6 5 5 4 4 4 5 5 6 6 7 7 8 8 8 9 10 11 11 12 12 12 12 12 12 12
12 12 11 11 10 8 7 7 7 7 7 8 9 8 7 6 4 3 3 3 4 5 5 5 5 4 3 3 3 4 4 5 5 5 5 5 6 6 6 6 6 5 5 5 4 4 4 5 5 5 5 5 6 7 7 8 8 8 9 10 11 11 12 13 13 13 12 12 12
12 11 11 10 8 7 7 8 8 8 8 8 8 8 6 5 4 3 3 4 4 5 5 5 5 5 5 5 6 6 6 7 7 7 7 7 7 8 8 7 6 5 4 3 2 3 4 5 5 5 5 5 6 6 7 8 8 9 9 10 11 12 12 13 13 13 12 12 11
12 11 10 9 8 8 8 9 9 9 8 8 7 6 5 4 4 4 4 5 5 5 6 6 6 6 7 7 7 7 7 7 8 8 8 8 8 9 9 8 7 5 3 2 2 3 4 5 6 6 6 6 6 7 7 8 9 9 10 10 11 11 12 12 13 13 13 12 12
11 11 10 9 9 9 10 10 10 9 8 7 6 6 5 5 5 5 5 5 6 6 6 6 6 6 7 7 7 7 7 7 7 7 7 7 7 8 8 7 6 4 2 2 3 5 6 6 6 6 6 7 7 8 8 9 9 9 10 10 10 10 11 11 12 12 13 13 13
11 11 10 9 10 10 11 11 10 9 8 7 6 6 6 6 6 5 6 6 7 7 6 6 6 6 6 6 6 6 6 6 6 6 6 6 6 6 6 5 4 2 2 2 4 5 6 7 7 7 7 8 8 9 9 9 9 9 9 9 9 9 9 10 11 12 13 13 14
11 10 10 10 10 11 11 11 10 10 9 8 7 6 6 6 6 6 6 7 7 7 7 7 7 7 7 7 7 7 7 7 7 6 6 6 6 5 5 4 3 2 2 3 4 6 7 7 7 8 8 9 9 10 10 10 10 9 9 8 8 8 9 10 11 12 13 14 14
10 10 10 10 11 11 11 11 10 10 9 8 7 7 7 7 7 7 7 7 7 8 8 7 7 7 7 7 7 7 7 7 7 6 6 6 6 5 4 4 3 3 3 4 5 6 6 7 7 7 8 9 10 10 11 11 11 10 9 8 8 8 9 10 12 12 13 13 13
11 10 10 11 11 11 11 11 10 10 9 9 8 8 8 8 8 8 8 8 8 7 7 7 7 7 7 6 6 6 7 7 6 6 6 6 5 5 5 4 4 4 4 4 5 5 6 6 6 7 8 9 10 11 11 12 12 11 11 10 9 9 10 11 11 11 11 12 12
12 12 11 11 11 11 11 11 11 10 10 9 9 9 10 10 9 9 8 8 7 7 6 6 6 6 6 6 6 7 7 7 6 6 6 5 5 5 5 5 4 4 4 4 5 5 5 6 6 7 8 9 10 10 11 12 12 12 12 11 10 10 10 10 11 10 10 10 11
13 13 12 12 11 11 11 11 11 11 10 10 10 11 11 11 11 10 8 7 7 6 6 6 7 7 7 7 7 7 7 7 6 6 5 5 5 4 5 5 5 4 4 4 5 5 6 6 6 7 8 9 9 10 11 12 13 13 13 12 11 11 11 11 11 10 9 9 11
14 14 13 12 12 12 12 12 11 11 10 11 11 12 12 12 12 10 8 7 7 6 7 8 8 9 9 8 8 8 8 7 6 6 5 5 5 5 5 5 5 5 5 5 5 6 6 6 7 7 8 8 9 10 12 13 14 14 13 12 12 11 11 11 11 11 10 10 11
14 14 14 13 12 12 12 11 11 11 10 11 12 12 13 13 12 10 8 7 7 7 8 9 9 10 9 9 9 8 8 7 6 6 6 6 6 6 5 6 6 6 6 6 6 6 6 7 6 6 6 6 8 10 12 13 14 14 13 13 12 11 11 11 11 12 12 11 12
14 14 14 13 12 12 12 11 11 10 10 11 12 13 13 13 12 10 8 7 7 8 9 10 10 10 10 10 9 9 8 7 6 6 6 6 7 6 6 6 7 7 6 6 6 6 7 6 5 4 4 5 6 8 10 12 13 14 13 13 11 11 10 10 11 12 13 13 13
13 13 13 13 12 12 12 12 11 10 10 11 13 13 13 13 11 9 8 7 7 8 9 10 10 10 10 10 9 9 8 7 7 7 7 7 7 7 6 7 7 7 7 7 7 7 7 5 6 5 5 4 6 7 9 11 12 13 13 12 12 11 11 11 11 12 13 14 14
13 13 13 12 12 12 12 12 11 10 10 11 13 13 13 12 11 9 8 8 8 9 9 10 10 10 10 10 9 9 8 8 8 8 8 7 7 6 6 6 7 7 7 7 7 7 6 6 7 7 6 5 6 7 8 10 11 12 12 12 12 12 11 11 12 12 13 14 14
Wind_Direction
205 211 217 220 221 219 217 217 217 218 217 215 213 213 214 218 227 233 236 237 231 219 209 209 217 224 228 232 237 241 245 249 252 254 256 258 259 260 260 259 259 258 257 256 255 255 255 255 255 255 254 254 254 253 253 252 252 252 252 252 254 255 256 256 256 256 256 256 255
210 214 217 218 217 214 211 210 212 213 213 213 212 213 217 224 236 242 245 243 236 224 215 216 227 235 239 241 244 247 251 255 257 258 258 259 258 257 257 256 256 256 256 256 256 257 257 258 259 260 260 260 260 260 260 259 259 259 258 257 256 256 257 257 256 257 257 257 257
207 210 213 214 214 211 207 205 207 211 214 216 215 217 220 224 230 234 236 238 236 232 228 228 236 242 244 245 247 248 251 252 253 253 252 251 251 251 252 254 255 257 258 259 260 260 260 260 261 261 262 263 263 264 264 264 264 264 263 262 260 260 259 259 259 259 259 258 257
202 204 207 209 210 209 207 207 209 213 217 220 219 217 216 218 221 224 228 232 237 239 237 236 240 243 244 243 243 244 245 246 246 246 247 248 250 252 255 258 260 262 263 263 263 263 262 262 262 262 262 263 264 264 265 265 265 266 265 265 264 263 262 261 261 260 260 260 259
195 197 198 199 202 206 208 210 213 215 219 221 222 220 220 221 224 227 232 238 244 245 242 238 238 239 240 240 241 242 243 245 247 249 251 254 256 258 260 262 263 263 262 262 261 260 260 260 261 261 261 262 262 263 264 264 265 265 265 264 264 264 263 263 262 261 261 261 260
190 192 192 193 196 201 206 210 213 215 216 218 221 223 225 227 228 230 231 233 236 236 234 233 234 236 239 241 243 245 247 250 253 255 257 259 261 262 262 262 261 260 258 257 256 256 256 257 257 257 258 259 260 262 263 264 264 264 264 263 262 262 262 262 262 261 261 261 261
191 192 192 192 196 202 208 212 214 215 217 220 221 223 226 228 227 226 225 224 225 227 230 233 236 240 244 247 248 250 251 253 256 258 260 260 261 260 259 256 255 254 254 255 255 255 256 256 256 257 258 259 260 262 263 264 264 264 264 263 262 261 261 261 260 260 260 260 261
191 191 190 190 194 199 204 208 210 211 213 216 218 220 223 226 226 227 227 228 228 230 234 239 243 246 249 250 251 252 254 255 257 258 257 256 255 253 252 251 250 251 252 254 255 256 256 258 258 259 260 262 262 263 263 264 265 265 266 266 265 263 262 261 260 260 260 260 261
180 181 183 186 192 196 200 201 203 204 206 209 214 218 223 226 229 231 232 232 234 237 241 243 246 249 250 252 253 255 257 257 257 256 255 254 252 250 249 250 249 249 252 255 256 256 257 258 259 260 261 262 263 263 262 261 261 262 263 264 265 265 263 262 261 261 260 260 261
170 174 179 185 191 195 198 199 200 202 206 210 214 219 223 227 230 232 233 234 237 239 242 244 246 249 251 253 255 257 258 259 258 258 258 258 256 254 253 252 251 251 252 256 257 258 259 259 260 261 260 261 261 262 261 260 259 259 259 260 261 262 262 261 260 260 260 260 259
169 174 179 184 189 192 195 197 200 203 206 210 214 218 220 223 225 228 231 234 236 238 240 244 246 248 250 252 254 256 258 260 261 261 261 262 261 260 258 258 257 256 257 259 260 261 262 263 263 264 263 262 261 261 260 259 258 258 257 257 258 259 259 259 258 257 257 257 256
167 172 177 181 184 187 189 192 195 197 199 201 204 208 211 214 217 222 226 231 234 236 238 242 244 246 249 251 254 256 258 259 260 260 261 261 261 261 261 260 260 260 260 262 264 265 266 268 268 268 267 265 262 260 259 258 257 256 256 255 256 256 257 258 257 256 255 255 254
163 167 171 176 179 180 179 177 176 176 177 180 186 191 196 201 208 215 221 226 230 233 237 242 245 248 250 252 254 256 258 259 259 260 260 261 261 261 262 262 263 263 265 267 270 273 274 276 276 275 274 271 267 264 261 258 257 256 255 254 254 255 256 258 258 257 256 256 255
163 166 171 174 177 176 172 167 165 167 171 175 181 186 191 196 203 211 217 222 226 231 238 245 251 255 257 259 260 262 264 266 266 266 266 267 267 267 268 269 271 273 275 278 280 282 284 284 285 285 284 282 279 275 271 268 265 263 261 259 258 257 257 258 259 260 260 260 259
166 170 174 177 177 175 171 169 169 171 176 179 184 189 193 198 205 212 217 220 226 236 245 254 263 270 274 276 278 278 278 279 278 279 279 280 281 282 283 284 285 287 289 290 291 292 292 293 294 294 293 292 290 288 286 282 279 275 272 270 267 265 263 263 263 264 265 265 264
168 172 175 177 175 172 171 171 174 177 180 184 188 193 198 203 211 218 223 227 238 252 263 272 279 286 291 294 296 297 297 297 297 298 298 300 302 304 305 305 304 303 303 301 301 301 299 297 297 295 292 290 289 288 287 285 284 282 281 280 278 275 273 271 269 269 269 268 267
168 171 174 175 174 171 172 174 178 182 185 189 193 198 204 212 222 231 241 252 266 276 283 288 293 299 305 309 311 312 312 311 310 310 311 312 313 313 313 312 309 307 304 301 299 297 294 289 289 286 283 282 282 281 281 281 281 281 280 280 279 278 277 274 273 271 269 267 265
168 172 174 176 175 174 174 177 180 184 189 193 199 206 215 225 237 252 267 278 285 289 292 297 305 310 313 314 313 311 307 302 302 305 307 306 304 304 303 303 301 300 298 295 291 288 286 284 280 277 275 274 274 274 276 277 278 278 277 277 276 275 273 272 270 267 265 262 260
170 174 177 179 180 179 179 182 184 188 194 201 210 219 230 243 259 275 287 294 295 296 298 301 306 308 306 304 304 301 295 288 287 291 293 291 289 289 291 294 294 293 291 287 283 281 280 278 275 273 270 269 268 270 272 274 276 277 276 275 273 272 270 269 266 263 260 257 255
171 178 182 185 186 185 186 188 192 197 204 213 222 233 246 260 276 289 297 300 300 300 300 298 297 295 293 292 295 293 287 280 276 275 275 274 274 275 277 281 282 282 280 276 275 276 276 275 274 272 270 269 269 269 271 272 273 274 273 272 271 270 268 265 262 259 256 253 251
174 182 188 192 192 192 194 197 201 207 213 222 232 244 256 269 282 290 292 293 293 292 291 290 287 284 282 281 282 280 277 275 272 269 267 268 269 271 272 274 273 273 273 274 276 278 278 276 274 272 271 271 271 270 270 270 270 270 271 271 269 267 264 260 257 254 251 249 247
178 187 192 194 195 196 198 201 206 211 217 226 238 248 257 264 268 267 265 269 278 286 287 283 277 272 267 265 265 266 268 271 271 271 271 272 274 275 276 275 274 274 277 281 284 285 283 279 276 273 272 272 272 271 270 269 268 269 268 267 265 262 259 255 251 248 245 244 242
183 189 192 194 196 198 201 204 208 212 219 229 239 243 244 243 242 241 243 255 274 281 279 273 267 259 253 251 252 256 261 266 270 274 280 285 287 286 284 282 282 283 286 290 293 293 290 285 280 277 274 273 272 271 270 269 268 267 265 262 258 255 252 249 246 242 240 238 236
188 191 193 195 197 199 203 208 212 218 225 232 235 234 231 230 231 231 235 246 258 262 262 259 255 251 245 243 244 248 254 260 269 280 291 298 298 296 294 292 290 290 291 293 296 298 296 291 285 279 275 272 271 270 269 268 267 264 261 257 253 249 245 242 239 236 233 230 229
192 195 196 196 198 202 207 213 218 225 232 236 233 229 228 229 231 234 236 240 246 249 249 245 243 241 240 239 241 245 252 261 275 286 292 293 292 294 296 297 296 293 291 291 294 296 297 293 287 281 277 273 270 268 267 265 263 259 256 252 248 243 237 233 229 226 224 222 220
194 197 199 200 202 206 213 220 224 228 234 236 232 229 229 231 237 243 246 247 250 251 248 242 237 236 237 240 247 253 262 272 281 285 286 287 288 293 298 301 300 296 292 290 291 294 294 289 284 280 277 275 271 266 262 259 256 252 248 244 240 236 231 224 218 215 213 213 212
194 198 200 203 205 209 218 227 228 228 230 233 231 231 234 241 249 253 255 256 256 254 250 243 239 241 251 263 271 277 283 288 290 288 287 290 295 301 305 307 305 299 293 286 286 287 287 285 282 278 275 273 269 264 259 254 250 244 238 235 232 230 226 221 214 209 206 206 206
192 196 201 206 209 213 220 226 226 226 229 235 238 242 251 263 268 264 261 262 256 251 247 245 249 262 277 285 288 291 295 297 298 296 296 297 300 303 305 306 306 300 289 277 265 260 264 271 275 276 273 266 261 257 253 248 242 236 231 228 227 226 223 220 215 210 205 202 201
194 200 206 211 214 213 213 215 218 223 228 234 241 252 265 276 277 272 265 257 249 245 244 248 258 270 280 285 290 294 297 297 296 295 294 293 295 296 298 300 299 294 282 254 222 223 237 249 260 267 266 258 249 244 240 236 232 228 225 224 224 223 221 218 214 209 204 199 194
199 204 208 211 213 211 207 207 212 217 222 228 238 249 259 264 263 259 250 240 235 236 241 248 257 265 271 276 283 286 286 283 281 279 275 273 275 279 283 286 285 282 266 231 217 220 226 233 242 251 252 247 239 232 229 226 223 221 219 219 219 219 217 214 209 203 197 191 184
200 205 208 210 210 208 206 206 209 213 219 226 236 245 248 246 241 236 231 227 226 231 238 245 251 256 260 264 268 268 266 263 258 253 250 250 252 256 261 266 265 257 243 236 234 231 228 228 233 240 242 239 232 225 221 218 216 215 213 212 210 209 205 201 196 190 184 180 175
205 210 213 211 209 208 207 209 211 216 222 229 235 236 232 225 221 223 225 223 224 229 235 243 248 251 253 253 253 252 250 247 242 237 235 236 239 242 245 247 240 228 234 253 251 242 234 231 234 238 240 237 230 223 216 211 208 207 204 201 196 191 187 183 179 176 173 172 170
210 215 216 213 210 209 209 211 215 220 225 229 231 226 217 210 211 216 222 224 226 230 236 242 244 245 245 245 243 242 241 238 234 230 229 229 231 235 239 240 231 232 249 265 260 250 241 236 236 239 240 238 231 223 215 208 202 197 192 185 179 174 173 172 170 168 168 168 168
211 212 211 211 209 208 209 213 218 222 224 225 221 213 207 205 208 213 219 225 228 233 237 239 239 239 241 241 238 234 232 231 229 225 224 224 227 231 234 234 231 234 247 258 253 246 241 240 239 241 241 239 233 224 215 206 198 190 183 175 170 169 170 170 170 169 169 169 169
210 210 209 209 208 209 210 214 218 220 221 218 210 202 201 205 211 216 221 225 228 230 231 230 229 229 229 228 225 222 220 219 218 218 220 222 227 231 233 233 231 234 242 248 240 236 237 241 243 244 244 240 232 222 213 205 197 188 180 174 172 173 175 176 175 175 175 175 174
213 210 208 209 212 214 216 218 218 218 215 210 203 199 200 205 212 217 221 222 223 222 219 217 217 217 215 213 211 210 209 210 212 215 218 224 231 237 239 237 233 234 237 240 235 232 235 243 248 250 247 239 227 216 208 202 195 188 181 177 177 180 184 185 185 184 184 183 181
212 209 207 210 215 219 220 219 218 215 211 206 202 201 203 207 212 215 217 216 215 212 210 211 213 213 212 209 206 206 208 212 216 220 227 236 243 249 249 243 235 230 227 228 230 234 242 251 255 252 243 229 215 206 202 198 194 189 184 180 180 183 187 189 190 189 189 188 185
208 205 204 208 214 218 220 219 218 215 210 206 205 205 207 210 214 215 215 212 211 208 208 210 212 213 212 212 210 210 213 220 226 236 245 253 257 258 253 243 232 226 224 226 232 242 253 260 255 243 228 213 204 200 198 196 193 189 186 183 181 181 184 187 188 189 188 187 186
206 203 204 208 212 216 218 219 221 219 214 209 208 208 209 211 216 217 215 213 213 211 210 210 212 213 214 215 215 216 219 228 238 249 257 260 263 262 253 239 228 224 225 230 239 253 263 260 235 214 205 203 202 201 199 197 193 190 188 186 182 179 178 180 183 184 184 184 185
210 208 209 212 214 216 219 222 226 226 221 214 212 210 211 213 216 216 216 214 214 214 214 214 215 217 218 219 220 222 228 238 249 256 259 259 260 258 250 236 226 224 230 241 254 268 270 249 210 193 192 201 207 207 205 202 197 193 191 188 184 177 174 175 178 179 180 180 183
219 218 218 218 218 220 222 226 231 230 224 216 214 214 214 216 216 216 215 213 213 214 216 218 220 222 223 224 225 230 237 246 253 257 258 255 252 250 243 234 227 226 234 250 267 279 273 235 202 189 189 200 208 210 208 206 203 200 197 194 189 182 176 173 176 178 178 178 180
Height
807 808 808 809 810 810 810 811 812 813 814 815 815 816 817 818 819 819 820 820 820 819 818 818 818 818 819 819 820 820 820 820 820 821 821 822 822 822 823 823 823 824 824 824 824 825 825 825 825 825 825 825 825 825 825 825 826 826 826 826 826 826 826 826 826 826 826 826 826
806 807 808 808 809 809 810 811 811 812 813 814 815 815 816 817 818 819 820 820 819 818 817 817 817 818 818 818 819 819 820 820 820 820 821 821 822 822 822 822 823 823 823 823 824 824 824 823 823 823 823 824 824 824 824 824 825 825 824 824 825 825 824 824 824 824 825 825 825
805 806 806 807 807 808 809 810 811 811 812 813 814 815 816 817 818 819 819 819 818 817 816 816 817 817 817 818 818 819 819 820 820 820 821 821 821 821 822 822 822 822 822 822 822 822 822 822 822 822 822 822 822 822 822 823 823 823 823 823 823 823 823 823 823 823 823 823 823
804 804 805 805 806 807 808 809 810 811 811 812 813 814 815 816 817 817 817 817 816 816 815 815 816 816 817 817 817 818 819 819 820 820 820 820 821 821 821 821 821 821 821 821 820 820 820 820 820 820 820 820 820 820 821 821 821 821 821 821 821 821 821 821 821 821 821 821 821
803 803 804 805 806 807 808 808 809 810 811 811 812 813 814 814 815 815 815 815 814 814 814 815 815 816 816 816 816 817 818 818 819 819 819 820 820 820 819 819 819 819 819 819 819 819 819 819 819 819 819 819 819 819 819 820 820 819 819 819 819 819 819 819 819 819 819 819 819
802 803 804 805 805 806 807 808 809 810 810 810 811 811 812 812 812 813 813 813 813 814 814 815 815 815 815 815 816 816 817 817 818 818 818 818 818 818 818 818 817 817 817 817 817 817 817 817 817 817 817 817 817 817 818 818 818 818 817 817 817 817 817 817 817 817 817 817 817
802 802 803 804 805 806 807 808 808 809 809 810 810 810 810 811 811 811 812 812 813 813 814 814 814 814 814 815 815 815 816 816 817 817 817 816 816 816 816 816 816 816 815 815 815 815 815 815 815 815 815 816 816 816 816 816 816 816 815 815 815 815 815 815 815 815 815 815 815
802 802 803 804 805 806 807 807 808 808 809 809 809 810 810 810 810 811 811 812 812 812 813 813 813 813 813 814 814 815 815 815 815 815 815 815 815 815 815 815 815 815 814 814 814 814 814 814 814 814 814 814 814 814 814 815 814 814 814 813 813 813 814 813 813 813 813 813 813
802 802 803 804 805 806 807 807 808 808 808 809 809 809 810 810 810 810 811 811 811 811 812 812 812 812 812 813 813 813 814 814 814 814 814 814 814 814 814 813 813 813 813 813 813 813 813 813 813 813 813 813 813 813 813 813 813 812 812 812 812 811 811 812 811 811 811 811 811
802 803 804 805 805 806 807 807 807 808 808 808 809 809 809 810 810 810 810 810 810 811 811 811 811 811 812 812 812 812 813 813 813 813 813 813 812 812 812 812 812 812 812 812 812 812 812 812 812 811 811 811 811 811 811 811 811 810 810 810 810 810 810 810 810 810 810 810 810
802 802 803 804 805 805 806 806 807 807 807 808 808 808 809 809 809 809 810 810 810 810 810 810 810 811 811 811 811 811 812 812 812 811 811 811 811 811 811 811 811 811 811 811 811 810 810 810 810 810 810 810 810 810 810 810 809 809 809 808 808 808 808 808 808 808 808 808 808
801 802 803 804 804 805 805 806 806 806 807 807 807 807 808 808 808 808 809 809 809 809 810 810 810 810 810 810 810 810 811 811 811 810 810 810 810 810 810 810 810 810 810 810 809 809 809 809 808 808 808 808 808 808 808 808 808 807 807 807 807 807 806 806 806 806 807 807 807
801 802 802 803 804 804 805 805 805 805 806 806 806 807 807 807 807 807 808 808 808 809 809 809 809 809 810 810 810 810 810 810 810 810 810 810 810 809 809 809 809 808 808 808 808 807 807 807 807 806 806 806 806 806 806 806 806 805 805 805 805 805 805 805 805 805 805 805 805
800 801 802 802 803 804 804 804 805 805 805 805 806 806 806 806 806 807 807 807 808 808 808 808 809 809 809 809 809 809 809 809 809 809 809 809 808 808 808 808 807 807 807 806 806 806 806 805 805 805 805 805 804 804 804 804 804 804 804 804 804 803 803 803 803 803 803 803 803
800 801 801 802 802 803 803 804 804 804 805 805 805 805 805 805 806 806 807 807 807 807 808 808 808 808 808 808 808 808 808 808 808 808 808 808 807 807 807 807 806 806 806 805 805 805 805 805 804 804 804 803 803 803 803 803 803 803 802 802 802 802 802 801 801 802 802 802 802
800 800 801 801 802 802 803 803 803 804 804 804 804 805 805 805 805 805 806 806 807 807 807 807 807 807 807 807 807 807 807 807 807 807 807 806 806 806 806 806 805 805 805 805 804 804 804 804 803 803 803 803 802 802 802 802 802 801 801 801 801 800 800 800 800 800 800 800 800
799 800 800 801 801 801 802 802 802 803 803 803 804 804 804 804 805 805 805 805 806 806 806 806 806 806 806 806 806 806 806 806 806 806 806 805 805 805 805 805 805 804 804 804 804 803 803 803 802 802 802 802 801 801 801 801 800 800 800 800 800 800 799 799 799 799 799 799 799
799 799 800 800 800 801 801 801 802 802 802 802 803 803 803 804 804 804 805 805 805 805 805 805 805 806 806 806 806 806 805 805 805 805 805 805 805 805 804 804 804 804 803 803 803 802 802 801 801 801 801 801 800 800 800 800 800 799 799 799 799 798 798 798 798 798 798 798 798
798 799 799 800 800 800 800 800 801 801 801 802 802 802 803 803 803 804 804 804 805 805 805 805 805 805 805 805 805 805 805 805 805 805 805 804 804 804 804 803 803 803 802 802 802 801 801 800 800 800 800 800 799 799 799 799 798 798 798 798 798 797 797 797 797 797 797 797 797
798 798 798 799 799 799 800 800 800 800 801 801 801 802 802 803 803 803 804 804 804 804 804 804 805 805 805 805 805 805 805 804 804 804 804 803 803 803 803 802 802 802 801 801 800 800 800 800 799 799 799 799 798 798 798 798 798 797 797 797 797 796 796 796 796 796 796 796 795
797 797 798 798 798 799 799 799 800 800 800 801 801 802 802 802 803 803 803 803 804 804 804 804 804 804 804 804 804 804 804 804 803 803 803 803 802 802 802 802 801 801 800 800 800 799 799 799 798 798 798 798 797 797 797 797 797 796 796 796 796 796 796 795 795 795 795 795 795
797 797 797 798 798 798 799 799 800 800 800 801 801 802 802 802 803 803 803 803 803 804 804 804 804 804 804 804 803 803 803 803 803 803 802 802 802 802 801 801 800 800 800 799 799 799 798 798 797 797 797 797 797 797 796 796 796 796 796 796 796 795 795 795 795 795 795 795 795
796 797 797 797 798 798 798 799 799 800 800 801 801 801 802 802 802 803 803 803 803 803 803 803 803 803 803 803 803 803 803 802 802 802 802 802 801 801 801 800 800 800 799 799 798 798 798 797 797 797 796 796 796 796 796 796 796 795 795 795 795 795 795 795 795 795 794 794 794
796 796 797 797 797 798 798 799 799 800 800 801 801 801 802 802 802 802 802 803 803 803 803 803 803 803 803 802 802 802 802 802 802 801 801 801 801 801 800 800 800 799 799 798 798 797 797 797 796 796 796 796 796 796 796 795 795 795 795 795 795 795 795 795 795 794 794 794 794
796 796 797 797 797 798 798 799 799 800 800 800 801 801 802 802 802 802 802 802 802 802 802 802 802 802 802 802 802 802 801 801 801 801 801 800 800 800 800 800 799 799 798 798 797 797 797 796 796 796 796 796 796 795 795 795 795 795 795 795 795 795 795 795 794 794 794 794 794
796 796 796 797 797 798 798 798 799 799 800 800 801 801 801 801 802 802 802 802 802 802 802 802 802 802 802 801 801 801 801 801 801 800 800 800 800 800 799 799 799 798 798 798 797 797 796 796 796 796 796 796 795 795 795 795 795 795 795 795 795 795 795 794 794 794 794 794 794
795 796 796 797 797 797 798 798 799 799 800 800 800 800 801 801 801 801 801 801 802 802 802 802 802 801 801 801 801 801 801 800 800 800 800 800 800 799 799 799 798 798 798 797 797 797 797 796 796 796 796 796 795 795 795 795 795 795 795 795 795 795 794 794 794 794 794 794 794
795 795 796 796 797 797 797 798 798 799 799 799 800 800 800 800 801 801 801 801 801 801 801 801 801 801 801 801 801 800 800 800 800 800 800 799 799 799 799 798 798 798 797 797 797 797 797 796 796 796 796 795 795 795 795 795 795 795 795 795 794 794 794 794 794 794 794 794 794
795 795 795 796 796 797 797 797 798 798 799 799 800 800 800 800 800 800 800 800 800 800 800 801 801 801 800 800 800 800 800 799 799 799 799 799 799 798 798 798 798 798 797 797 797 797 797 797 796 796 796 796 795 795 795 795 795 795 795 794 794 794 794 794 794 794 794 794 794
794 795 795 796 796 796 796 797 797 798 798 799 799 799 800 800 800 800 800 800 800 800 800 800 800 800 800 800 800 799 799 799 799 799 798 798 798 798 798 798 798 797 797 797 797 797 797 797 796 796 796 796 795 795 795 795 795 795 794 794 794 794 794 794 794 794 794 794 794
793 794 795 795 796 796 796 796 797 797 798 798 798 799 799 799 799 799 799 799 799 800 800 800 800 800 800 799 799 799 799 799 798 798 798 798 798 798 797 797 797 797 797 797 797 797 797 797 796 796 796 796 796 795 795 795 795 795 794 794 794 794 794 794 794 794 794 794 794
793 793 794 795 795 795 796 796 796 797 797 797 798 798 798 798 798 798 799 799 799 799 799 799 799 799 799 799 799 799 799 798 798 798 798 797 797 797 797 797 797 797 797 797 797 797 797 797 796 796 796 796 796 795 795 795 795 795 795 794 794 794 794 794 794 794 794 794 795
792 793 793 794 794 795 795 795 796 796 796 797 797 797 797 797 797 798 798 798 798 799 799 799 799 799 799 798 798 798 798 798 798 798 797 797 797 797 797 797 797 797 797 797 797 797 797 796 796 796 796 796 795 795 795 795 795 795 795 795 795 795 795 795 795 795 795 795 795
791 792 793 793 794 794 795 795 795 795 796 796 796 796 796 796 797 797 797 798 798 798 798 798 798 798 798 798 798 798 798 798 798 797 797 797 797 797 797 797 797 797 797 797 797 797 797 796 796 796 796 795 795 795 795 795 795 795 795 795 795 795 795 795 795 795 795 795 796
791 791 792 793 793 794 794 794 795 795 795 795 795 795 795 796 796 796 797 797 797 797 797 798 798 798 798 798 798 797 797 797 797 797 797 797 797 797 797 797 797 797 797 797 796 796 796 796 796 796 795 795 795 795 795 795 795 795 795 795 795 795 795 795 795 795 796 796 796
790 791 791 792 792 793 793 794 794 794 794 794 795 795 795 795 795 795 796 796 796 797 797 797 797 797 797 797 797 797 797 797 797 797 797 797 797 797 796 796 796 796 796 796 796 796 796 796 796 795 795 795 795 795 795 795 795 795 795 795 795 795 795 795 795 795 796 796 796
789 790 790 791 792 792 792 793 793 793 794 794 794 794 794 794 795 795 795 795 796 796 796 797 797 797 797 797 796 796 796 796 796 796 796 796 796 796 796 796 796 796 796 796 796 795 795 796 795 795 795 795 795 795 795 795 795 795 795 795 795 795 795 795 795 795 796 796 797
789 789 790 790 791 791 792 792 792 793 793 793 793 793 794 794 794 794 795 795 795 795 796 796 796 796 796 796 796 796 796 796 796 796 796 796 796 796 796 796 796 795 795 795 795 795 795 795 795 795 795 795 795 795 795 795 795 795 795 795 795 795 795 795 795 795 796 796 797
788 788 789 789 790 790 791 791 792 792 792 792 793 793 793 793 793 794 794 794 795 795 795 795 795 795 795 795 795 796 796 796 796 796 796 796 795 795 795 795 795 795 795 795 795 795 795 795 795 795 795 795 795 795 795 795 795 795 795 795 795 795 795 795 795 796 796 796 797
788 788 788 789 789 790 790 790 791 791 792 792 792 792 792 793 793 793 793 794 794 795 795 795 795 795 795 795 795 795 795 795 795 795 795 795 795 795 795 795 795 795 795 795 795 795 795 795 795 795 795 795 795 795 795 795 795 795 795 795 795 795 795 795 796 796 796 796 797
787 787 788 788 789 789 789 790 790 790 791 791 791 792 792 792 792 793 793 793 794 794 794 795 795 795 795 795 795 795 795 795 795 795 795 795 795 795 795 795 795 795 795 794 794 794 794 794 794 794 794 794 794 794 794 795 795 795 795 795 795 795 795 796 796 796 796 796 797